Current Version              Previous Version:    01  02  03  04  05  06  07  08  09  10  11  12  13  14  15  16  17  18  19  20  21  22  23  24  25  26  27  28  29  30  
   31  32  33  34  35  36  37  38  39  40  41  42  43  44  45  46  47  48  49  50  51  52  53  54  55  56  57  58  59  60  

[Printable]
198
ASUS44 KFWD 210801
RWRTX
NORTH TEXAS HOURLY WEATHER ROUNDUP
NATIONAL WEATHER SERVICE FORT WORTH TX
200 AM CST FRI NOV 21 2014

NOTE: "FAIR" INDICATES FEW OR NO CLOUDS BELOW 12,000 FEET WITH NO
SIGNIFICANT WEATHER AND/OR OBSTRUCTIONS TO VISIBILITY.

TXZ118-119-210900-
DALLAS/FORT WORTH METROPLEX

CITY           SKY/WX    TMP DP  RH WIND       PRES   REMARKS
DFW AIRPORT    CLOUDY    62  57  83 S12       30.05F
DALLAS LOVE    CLOUDY    62  58  86 S10       30.06S
FTW MEACHAM    MOCLDY    62  58  86 S10       30.04S
DAL-EXECUTIVE  CLOUDY    63  57  81 S8G21     30.06S
FTW-ALLIANCE   MOCLDY    61  58  90 S9        30.04S
ARLINGTON      CLOUDY    63  57  81 SE14      30.06S
GRAND PRAIRIE  CLOUDY    62  58  88 S8        30.08R
ADDISON        CLOUDY    62  60  91 S10       30.08S
MESQUITE       CLOUDY    60  57  90 SE8       30.08S
LANCASTER      CLOUDY    60  56  85 S8        30.08S
$$

TXZ091>094-102>105-117-120-121-131>134-210900-
NORTH CENTRAL TEXAS

CITY           SKY/WX    TMP DP  RH WIND       PRES   REMARKS
SHRMAN/DENISON CLOUDY    62  59  91 SE9G17    30.07S
BRIDGEPORT     CLEAR     60  59  96 S8        30.05R
DENTON         CLOUDY    62  58  86 S14       30.05R
MCKINNEY       CLOUDY    61  57  87 S12       30.07S
ROCKWALL       CLOUDY    59  57  93 S7        30.07S
TERRELL        CLOUDY    60  57  89 SE7       30.09S
WAXAHACHIE     CLOUDY    60  59  99 S9        30.08S
CLEBURNE       CLOUDY    61  61 100 S8        30.07R FOG
GRANBURY       CLOUDY    62  59  89 SE7       30.05S
$$

TXZ083>090-098>101-113>116-127>130-139>142-154-155-210900-
WESTERN NORTH TEXAS

CITY           SKY/WX    TMP DP  RH WIND       PRES   REMARKS
WICHITA FALLS  CLEAR     53  51  93 S10       29.98S
WF-KICKAPOO    CLEAR     53  53  99 SE10      30.00S
ABILENE        CLEAR     56  51  84 S15       30.00F
ABILENE-DYESS  CLEAR     55  50  82 S14       29.98F
MINERAL WELLS  CLOUDY    57  56  96 SE8       30.02S FOG
STEPHENVILLE   CLOUDY    59  57  92 S8        30.07S
COMANCHE       CLOUDY    60  59  97 S6        30.04S
COLEMAN        CLEAR     51  51 100 SW3       30.03S
$$

TXZ143>147-156>162-174-175-210900-
CENTRAL TEXAS

CITY           SKY/WX    TMP DP  RH WIND       PRES   REMARKS
WACO           CLOUDY    60  58  92 SE12      30.06S FOG
WACO-MCGREGOR  CLOUDY    61  54  77 S12       30.07S
CORSICANA      CLOUDY    59  57  93 SE8       30.09F
MEXIA          CLOUDY    59  58  97 SE7       30.07F
HEARNE         CLOUDY    60  59  97 SE5       30.09S
CAMERON        CLOUDY    61  60  96 S6        30.07S
TEMPLE         CLOUDY    61  55  82 SE10      30.05S
KILLEEN        CLOUDY    60  60  99 SE9       30.05S FOG
KILLEEN-SKYLRK CLOUDY    61  55  82 SE8       30.04S
FORT HOOD      CLOUDY    63  61  94 SE6       30.05S FOG
GATESVILLE     CLOUDY    63  61  94 SE6       30.07S
LAMPASAS       CLOUDY    59  58  97 CALM      30.04S FOG
$$

TXZ095>097-106>112-122>126-135>138-148>153-164>167-210900-
EAST TEXAS

CITY           SKY/WX    TMP DP  RH WIND       PRES   REMARKS
PARIS          CLEAR     48  46  93 E10       30.12S
SULPHUR SPRNGS CLOUDY    58  54  84 S3        30.13R
MINEOLA        CLOUDY    57  57 100 SE3       30.12S
TYLER          LGT RAIN  58  55  90 SE7       30.11S
LONGVIEW       LGT RAIN  57  55  93 SE10      30.13S
MARSHALL       CLOUDY    58  56  91 SE3       30.16S
ATHENS         CLOUDY    55  55 100 S8        30.09S
PALESTINE      DRIZZLE   58  58  99 SE7       30.11S
JACKSONVILLE   CLOUDY    58  57  97 SE10      30.12F
HENDERSON      CLOUDY    57  57 100 SE6       30.14S
NACOGDOCHES    CLOUDY    55  54  94 SE7       30.14F
LUFKIN         LGT RAIN  60  56  86 E7        30.13S
$$

SUPPLEMENTAL OBSERVATIONS (CENTRAL)

CITY           SKY/WX    TMP DP  RH WIND       PRES   REMARKS
$$

SUPPLEMENTAL OBSERVATIONS (WEST)

CITY           SKY/WX    TMP DP  RH WIND       PRES   REMARKS
$$

SUPPLEMENTAL OBSERVATIONS (EAST)

CITY           SKY/WX    TMP DP  RH WIND       PRES   REMARKS
$$

SUPPLEMENTAL OBSERVATIONS ARE A COLLECTION OF AUTOMATED INSTRUMENTS
THAT ARE MAINTAINED BY A VARIETY OF FEDERAL AND STATE AGENCIES.
CERTAIN ELEMENTS...SUCH AS HUMIDITY VALUES AND SUSTAINED WIND
SPEEDS...MAY BE APPROXIMATED.